When you browse on this site, cookies collect data to enhance your experience and personalize the content and advertising you see.
Visit our Privacy Policy to learn more. By continuing to use the site, you agree to this use of cookies and data.
  • en Suisse
  • Liste des pays
  • À 7 jours
  • Température de l'eau
  • Carte satellitaire
  • Carte météo
  • Widgets météo
  • user-avatar
    Se connecter

    Météo par heure à Elbasan

    Ce jour, 23 Mars, Samedi

    Heure Température Précipitation Vent Pression Humidité
    00:00 +11°C° 0 mm 3 m/s 740 mmHg 55%
    01:00 +11°C° 0 mm 3 m/s 740 mmHg 55%
    02:00 +10°C° 0 mm 3 m/s 740 mmHg 55%
    03:00 +10°C° 0 mm 3 m/s 740 mmHg 54%
    04:00 +10°C° 0 mm 3 m/s 740 mmHg 54%
    05:00 +10°C° 0 mm 3 m/s 740 mmHg 53%
    06:00 +10°C° 0 mm 3 m/s 740 mmHg 53%
    07:00 +11°C° 0 mm 3 m/s 740 mmHg 52%
    08:00 +13°C° 0 mm 3 m/s 740 mmHg 46%
    09:00 +16°C° 0 mm 3 m/s 739 mmHg 39%
    10:00 +19°C° 0 mm 3 m/s 739 mmHg 32%
    11:00 +19°C° 0 mm 2 m/s 739 mmHg 31%
    12:00 +20°C° 0 mm 2 m/s 739 mmHg 29%
    13:00 +21°C° 0 mm 2 m/s 738 mmHg 28%
    14:00 +21°C° 0 mm 2 m/s 738 mmHg 29%
    15:00 +21°C° 0 mm 2 m/s 738 mmHg 31%
    16:00 +21°C° 0 mm 2 m/s 738 mmHg 33%
    17:00 +19°C° 0 mm 2 m/s 738 mmHg 39%
    18:00 +17°C° 0 mm 2 m/s 738 mmHg 46%
    19:00 +15°C° 0 mm 1 m/s 738 mmHg 53%
    20:00 +14°C° 0 mm 2 m/s 738 mmHg 53%
    21:00 +14°C° 0 mm 2 m/s 738 mmHg 53%
    22:00 +14°C° 0 mm 2 m/s 738 mmHg 53%
    23:00 +13°C° 0 mm 2 m/s 739 mmHg 55%

    Demain, 24 Mars, Dimanche

    Heure Température Précipitation Vent Pression Humidité
    00:00 +13°C° 0 mm 2 m/s 739 mmHg 56%
    01:00 +12°C° 0 mm 2 m/s 739 mmHg 57%
    02:00 +12°C° 0 mm 2 m/s 739 mmHg 59%
    03:00 +12°C° 0 mm 2 m/s 739 mmHg 61%
    04:00 +10°C° 0 mm 2 m/s 739 mmHg 63%
    05:00 +12°C° 0 mm 2 m/s 739 mmHg 63%
    06:00 +12°C° 0 mm 2 m/s 739 mmHg 62%
    07:00 +13°C° 0 mm 2 m/s 739 mmHg 62%
    08:00 +15°C° 0 mm 2 m/s 739 mmHg 54%
    09:00 +17°C° 0 mm 2 m/s 739 mmHg 46%
    10:00 +19°C° 0 mm 2 m/s 739 mmHg 38%
    11:00 +20°C° 0 mm 2 m/s 739 mmHg 35%
    12:00 +21°C° 0 mm 2 m/s 739 mmHg 33%
    13:00 +23°C° 0 mm 2 m/s 738 mmHg 30%
    14:00 +21°C° 0 mm 2 m/s 738 mmHg 34%
    15:00 +21°C° 0 mm 2 m/s 738 mmHg 37%
    16:00 +20°C° 0 mm 3 m/s 737 mmHg 40%
    17:00 +18°C° 0 mm 2 m/s 737 mmHg 47%
    18:00 +16°C° 0 mm 1 m/s 737 mmHg 55%
    19:00 +13°C° 0 mm 0 m/s 737 mmHg 62%
    20:00 +13°C° 0 mm 0 m/s 737 mmHg 63%
    21:00 +12°C° 0 mm 0 m/s 737 mmHg 63%
    22:00 +12°C° 0 mm 0 m/s 737 mmHg 63%
    23:00 +12°C° 0 mm 0 m/s 737 mmHg 63%

    Après-demain, 25 Mars, Lundi

    Heure Température Précipitation Vent Pression Humidité
    00:00 +11°C° 0 mm 0 m/s 737 mmHg 63%
    01:00 +11°C° 0 mm 0 m/s 737 mmHg 63%
    02:00 +11°C° 0 mm 0 m/s 736 mmHg 64%
    03:00 +10°C° 0 mm 0 m/s 736 mmHg 64%
    04:00 +10°C° 0 mm 0 m/s 736 mmHg 64%
    05:00 +11°C° 0 mm 0 m/s 736 mmHg 62%
    06:00 +12°C° 0 mm 0 m/s 736 mmHg 60%
    07:00 +12°C° 0 mm 0 m/s 736 mmHg 58%
    08:00 +15°C° 0 mm 1 m/s 736 mmHg 53%
    09:00 +18°C° 0 mm 1 m/s 735 mmHg 48%
    10:00 +18°C° 0 mm 2 m/s 735 mmHg 42%
    11:00 +19°C° 0 mm 2 m/s 735 mmHg 42%
    12:00 +19°C° 0 mm 3 m/s 734 mmHg 41%
    13:00 +20°C° 0 mm 3 m/s 734 mmHg 40%
    14:00 +19°C° 0 mm 3 m/s 733 mmHg 43%
    15:00 +19°C° 0 mm 3 m/s 733 mmHg 47%
    16:00 +18°C° 0 mm 3 m/s 732 mmHg 50%
    17:00 +16°C° 0 mm 2 m/s 732 mmHg 59%
    18:00 +14°C° 0 mm 1 m/s 732 mmHg 69%
    19:00 +12°C° 0 mm 0 m/s 732 mmHg 78%
    20:00 +11°C° 0 mm 0 m/s 732 mmHg 79%
    21:00 +12°C° 0 mm 1 m/s 732 mmHg 80%
    22:00 +11°C° 0 mm 1 m/s 732 mmHg 81%
    23:00 +11°C° 0 mm 1 m/s 732 mmHg 78%

    26 Mars, Mardi

    Heure Température Précipitation Vent Pression Humidité
    00:00 +10°C° 0 mm 0 m/s 732 mmHg 76%
    01:00 +9°C° 0 mm 0 m/s 732 mmHg 73%
    02:00 +10°C° 0 mm 1 m/s 732 mmHg 71%
    03:00 +10°C° 0 mm 1 m/s 732 mmHg 69%
    04:00 +10°C° 0 mm 1 m/s 732 mmHg 68%
    05:00 +11°C° 0 mm 1 m/s 732 mmHg 66%
    06:00 +11°C° 0 mm 1 m/s 732 mmHg 64%
    07:00 +12°C° 0 mm 1 m/s 732 mmHg 62%
    08:00 +14°C° 0 mm 1 m/s 733 mmHg 54%
    09:00 +16°C° 0 mm 1 m/s 733 mmHg 47%
    10:00 +19°C° 0 mm 1 m/s 733 mmHg 40%
    11:00 +19°C° 0 mm 1 m/s 733 mmHg 39%
    12:00 +19°C° 0 mm 2 m/s 733 mmHg 38%
    13:00 +19°C° 0 mm 2 m/s 733 mmHg 37%
    14:00 +18°C° 0.1 mm 2 m/s 733 mmHg 43%
    15:00 +17°C° 0.1 mm 3 m/s 733 mmHg 49%
    16:00 +16°C° 0.1 mm 3 m/s 733 mmHg 56%
    17:00 +15°C° 0.1 mm 2 m/s 734 mmHg 60%
    18:00 +14°C° 0.1 mm 2 m/s 734 mmHg 65%
    19:00 +13°C° 0.1 mm 1 m/s 735 mmHg 70%
    20:00 +12°C° 0 mm 2 m/s 735 mmHg 67%
    21:00 +10°C° 0 mm 2 m/s 736 mmHg 63%
    22:00 +10°C° 0 mm 3 m/s 736 mmHg 60%
    23:00 +9°C° 0 mm 3 m/s 736 mmHg 59%

    27 Mars, Mercredi

    Heure Température Précipitation Vent Pression Humidité
    00:00 +9°C° 0 mm 3 m/s 736 mmHg 58%
    01:00 +9°C° 0 mm 3 m/s 737 mmHg 57%
    02:00 +8°C° 0 mm 3 m/s 737 mmHg 57%
    03:00 +8°C° 0 mm 3 m/s 737 mmHg 57%
    04:00 +8°C° 0 mm 3 m/s 736 mmHg 58%
    05:00 +8°C° 0 mm 3 m/s 737 mmHg 57%
    06:00 +8°C° 0 mm 3 m/s 737 mmHg 57%
    07:00 +8°C° 0 mm 4 m/s 737 mmHg 56%
    08:00 +8°C° 0.1 mm 4 m/s 737 mmHg 55%
    09:00 +10°C° 0.1 mm 3 m/s 737 mmHg 53%
    10:00 +11°C° 0.1 mm 3 m/s 738 mmHg 52%
    11:00 +11°C° 0.3 mm 3 m/s 737 mmHg 54%
    12:00 +11°C° 0.3 mm 3 m/s 737 mmHg 56%
    13:00 +11°C° 0.3 mm 3 m/s 737 mmHg 58%
    14:00 +11°C° 0.4 mm 3 m/s 737 mmHg 60%
    15:00 +11°C° 0.4 mm 3 m/s 737 mmHg 63%
    16:00 +10°C° 0.4 mm 3 m/s 737 mmHg 65%
    17:00 +10°C° 0.1 mm 3 m/s 737 mmHg 68%
    18:00 +9°C° 0.1 mm 3 m/s 737 mmHg 70%
    19:00 +8°C° 0.1 mm 2 m/s 737 mmHg 73%
    20:00 +8°C° 0 mm 2 m/s 737 mmHg 74%
    21:00 +8°C° 0 mm 2 m/s 738 mmHg 75%
    22:00 +7°C° 0 mm 2 m/s 738 mmHg 75%
    23:00 +7°C° 0 mm 3 m/s 738 mmHg 76%

    28 Mars, Jeudi

    Heure Température Précipitation Vent Pression Humidité
    00:00 +7°C° 0 mm 3 m/s 738 mmHg 77%
    01:00 +5°C° 0 mm 3 m/s 738 mmHg 77%
    02:00 +5°C° 0 mm 3 m/s 738 mmHg 78%
    03:00 +5°C° 0 mm 3 m/s 738 mmHg 78%
    04:00 +5°C° 0 mm 3 m/s 738 mmHg 78%
    05:00 +7°C° 0 mm 3 m/s 738 mmHg 76%
    06:00 +7°C° 0 mm 3 m/s 739 mmHg 74%
    07:00 +8°C° 0 mm 3 m/s 739 mmHg 72%
    08:00 +9°C° 0 mm 3 m/s 739 mmHg 66%
    09:00 +11°C° 0 mm 3 m/s 739 mmHg 61%
    10:00 +12°C° 0 mm 4 m/s 740 mmHg 56%
    11:00 +12°C° 0.1 mm 4 m/s 740 mmHg 54%
    12:00 +13°C° 0.1 mm 3 m/s 740 mmHg 53%
    13:00 +13°C° 0.1 mm 3 m/s 740 mmHg 52%
    14:00 +13°C° 0.1 mm 3 m/s 740 mmHg 52%
    15:00 +13°C° 0.1 mm 3 m/s 740 mmHg 52%
    16:00 +12°C° 0.1 mm 3 m/s 740 mmHg 53%
    17:00 +12°C° 0 mm 2 m/s 740 mmHg 58%
    18:00 +10°C° 0 mm 2 m/s 740 mmHg 63%
    19:00 +9°C° 0 mm 2 m/s 740 mmHg 69%
    20:00 +8°C° 0 mm 2 m/s 740 mmHg 71%
    21:00 +8°C° 0 mm 2 m/s 740 mmHg 73%
    22:00 +7°C° 0 mm 3 m/s 741 mmHg 74%
    23:00 +7°C° 0 mm 3 m/s 741 mmHg 75%
    Voir plus